Location: Austin
(30.3000°N, 97.7500°W)
Time: 11:02:05
(UTC-05:00)

Cosmos 2322 Rocket - Pass Details

Date: 03 April 2024
Orbit: 834 x 848 km, 71.0° (Epoch: 21 April)

Event Time Altitude Azimuth Distance (km) Brightness Sun altitude
Exits shadow 04:50:17 27° 345° (NNW) 1,572 3.6 -31.0°
Drops below altitude 10° 04:53:04 10° 4° (N) 2,453 4.9 -30.4°
Sets 04:55:39 0° 11° (NNE) 3,388 5.8 -29.9°
